This is the latest recevied weather packets stored in our database for station/object KC0AFB. If no packets are shown the sender has not sent any weather packets the latest 10 day(s).
| Time | Temp. | Humidity | Pressure | Rain* | Wind** | Luminosity | Snow |
|---|---|---|---|---|---|---|---|
| 1777578346 | 7.22° C | 52% | 1020.8 hPa | 0 mm | - | 271 W/m² | - |
| 1777578043 | 7.78° C | 53% | 1020.8 hPa | 0 mm | - | 283 W/m² | - |
| 1777577738 | 7.22° C | 53% | 1020.5 hPa | 0 mm | - | 812 W/m² | - |
| 1777577435 | 7.78° C | 51% | 1020.7 hPa | 0 mm | - | 868 W/m² | - |
| 1777577133 | 7.78° C | 54% | 1020.6 hPa | 0 mm | - | 660 W/m² | - |
| 1777576829 | 7.22° C | 52% | 1020.7 hPa | 0 mm | - | 407 W/m² | - |
| 1777576527 | 7.22° C | 54% | 1020.7 hPa | 0 mm | - | 441 W/m² | - |
| 1777576224 | 7.22° C | 53% | 1021 hPa | 0 mm | - | 379 W/m² | - |
| 1777575920 | 6.67° C | 53% | 1020.7 hPa | 0 mm | - | 381 W/m² | - |
| 1777575616 | 7.78° C | 51% | 1020.8 hPa | 0 mm | - | 327 W/m² | - |
| 1777575313 | 7.78° C | 52% | 1020.9 hPa | 0 mm | - | 1009 W/m² | - |
| 1777575009 | 7.78° C | 53% | 1020.8 hPa | 0 mm | - | 636 W/m² | - |
| 1777574705 | 7.22° C | 52% | 1020.8 hPa | 0 mm | - | 805 W/m² | - |
| 1777574402 | 7.78° C | 52% | 1020.8 hPa | 0 mm | - | 313 W/m² | - |
| 1777574097 | 7.78° C | 51% | 1020.9 hPa | 0 mm | - | 324 W/m² | - |
| 1777573792 | 7.78° C | 53% | 1020.8 hPa | 0 mm | - | 979 W/m² | - |
| 1777573488 | 8.89° C | 51% | 1020.6 hPa | 0 mm | - | 650 W/m² | - |
| 1777573184 | 7.78° C | 51% | 1020.7 hPa | 0 mm | - | 842 W/m² | - |
| 1777572881 | 8.33° C | 51% | 1020.8 hPa | 0 mm | - | 272 W/m² | - |
| 1777572577 | 7.78° C | 52% | 1020.7 hPa | 0 mm | - | 871 W/m² | - |
| 1777572272 | 8.33° C | 51% | 1020.5 hPa | 0 mm | - | 238 W/m² | - |
| 1777571968 | 8.89° C | 50% | 1020.6 hPa | 0 mm | - | 355 W/m² | - |
| 1777571663 | 7.78° C | 50% | 1020.6 hPa | 0 mm | - | 173 W/m² | - |
| 1777571361 | 8.33° C | 51% | 1020.5 hPa | 0 mm | - | 225 W/m² | - |
| 1777571057 | 8.33° C | 51% | 1020.3 hPa | 0 mm | - | 186 W/m² | - |
* Rain latest hour (hover to see other rain measurements)
** Current wind speed in m/s (hover to see current wind gust speed)